Wind_Speed
37 33 31 31 34 33 31 28 27 27 23 27 29 27 28 28 26 25 24 24 22 21 22 23 24 25 28 31 34 36 38 39 40 40 41 42 42 42 41 42 42 45 42 42 43 42 44 46 41
42 37 35 33 33 31 33 33 30 30 28 30 31 31 30 29 29 28 27 26 27 26 26 27 28 29 32 34 37 39 41 42 43 44 45 45 45 45 44 45 47 47 44 46 45 44 45 50 44
45 43 39 36 34 32 34 34 35 36 33 32 34 34 32 29 28 28 28 28 28 28 29 30 31 33 35 38 40 41 43 44 45 46 47 47 47 47 48 49 49 48 47 49 49 47 46 50 46
49 47 45 40 37 36 34 35 38 38 36 37 36 31 28 28 26 27 27 27 28 30 32 33 34 37 39 41 42 42 45 46 47 49 49 49 49 50 51 52 51 50 50 52 52 49 48 49 48
53 51 49 47 43 40 38 36 37 37 37 34 31 29 27 27 28 28 27 29 31 33 36 37 39 41 42 44 44 46 47 49 50 51 51 52 51 52 53 54 54 51 53 54 50 49 50 52 52
55 54 52 50 48 45 42 41 38 38 37 36 35 33 32 31 32 32 32 34 35 37 39 41 43 44 46 47 49 50 51 52 52 53 53 54 53 54 56 57 55 53 55 52 50 52 53 54 53
57 58 55 55 52 49 46 46 43 43 42 41 39 37 37 37 37 37 37 39 40 41 43 45 47 48 49 52 52 53 54 55 56 55 56 57 56 57 59 59 57 56 55 54 52 53 55 56 54
60 59 60 57 56 54 52 50 48 47 47 46 44 42 42 42 42 42 42 42 43 45 47 48 50 51 55 54 55 56 58 60 59 58 59 59 59 60 62 60 59 58 56 54 54 56 57 59 54
62 62 61 61 59 55 56 56 53 50 50 51 50 49 47 47 47 46 46 45 46 47 48 50 52 55 55 56 58 59 62 62 61 60 62 61 62 64 64 62 61 60 58 53 57 58 57 55 55
65 65 65 63 63 61 59 57 57 55 54 53 54 52 51 51 51 52 52 50 49 51 54 55 57 57 58 60 61 63 63 63 62 63 64 65 66 67 66 65 63 62 59 56 58 60 58 57 57
66 68 68 67 65 64 63 62 60 59 58 58 56 57 56 55 55 55 55 55 56 59 58 58 60 62 63 63 65 65 65 65 66 67 68 69 70 69 69 67 64 63 61 61 63 59 58 62 61
67 70 71 69 68 66 65 65 64 63 63 63 60 60 61 61 60 60 61 61 62 63 64 64 65 66 67 67 66 66 67 68 69 70 71 72 73 73 70 68 66 65 64 64 64 61 62 65 64
68 70 72 72 71 69 67 67 65 65 65 64 63 64 64 63 63 63 62 63 62 64 66 68 68 68 69 69 70 70 71 72 73 73 74 75 73 71 68 68 68 66 66 68 66 65 69 69 69
71 67 69 72 73 71 70 69 68 67 67 67 69 68 67 66 66 66 67 68 68 69 69 69 69 70 71 73 73 74 76 76 77 77 78 76 73 71 72 70 70 69 70 71 71 72 73 72 70
71 71 69 68 73 73 72 71 71 70 69 68 68 69 70 70 69 70 71 71 70 71 72 72 72 72 73 74 76 78 78 80 79 79 78 77 75 75 73 73 73 73 74 74 78 76 77 74 74
66 67 66 68 69 69 72 73 70 71 71 70 71 71 70 69 69 70 71 72 71 71 72 73 75 75 76 78 80 81 80 80 80 78 78 79 79 77 77 77 77 78 80 81 78 81 80 79 77
64 63 62 63 60 66 70 57 54 55 61 66 68 69 70 71 71 70 72 72 73 74 75 75 75 75 77 77 78 78 79 80 80 82 81 80 81 81 81 82 84 83 81 86 86 84 84 82 78
61 62 59 58 58 59 69 72 74 74 70 70 69 67 66 65 64 65 69 71 69 67 69 73 74 76 77 79 80 82 83 83 82 82 84 85 84 85 86 86 85 88 92 92 89 86 86 82 78
65 61 60 59 56 54 62 69 76 74 74 69 70 69 66 62 59 62 63 66 69 72 75 76 78 81 83 83 85 85 84 85 86 86 87 88 87 87 89 92 94 96 94 91 90 89 86 83 78
67 65 63 60 60 56 57 66 73 75 74 76 73 70 68 68 69 70 73 76 78 80 79 81 84 84 83 85 86 87 88 88 90 91 91 92 95 98 97 98 97 95 94 95 92 89 82 80 79
67 68 66 64 63 61 63 63 65 65 74 73 74 76 79 81 82 82 83 85 85 86 86 86 86 87 88 89 89 90 92 92 94 96 97 99 99 100 98 98 99 99 98 95 91 87 84 81 81
70 70 69 67 67 68 68 67 69 67 71 72 74 76 77 79 80 83 85 80 79 81 83 85 86 87 88 90 94 95 97 98 99 101 100 100 99 100 100 101 100 98 95 92 91 89 87 85 83
69 73 72 70 68 70 73 73 74 74 74 74 75 75 77 79 79 79 81 82 84 86 85 84 87 90 93 97 99 101 103 105 104 102 101 102 102 102 101 100 98 96 95 93 92 91 90 88 87
71 74 74 71 69 67 70 73 75 71 70 70 71 71 75 77 80 83 85 84 84 85 88 91 94 97 100 102 103 103 103 103 103 103 104 105 104 102 102 101 99 98 96 94 93 92 92 93 94
72 75 74 72 69 68 67 69 69 74 76 77 77 77 76 77 80 83 86 90 92 95 96 97 97 99 100 101 104 104 104 106 105 106 106 106 106 105 103 102 101 100 98 97 97 97 99 101 103
72 74 74 70 70 67 67 67 66 70 71 72 74 77 79 82 85 87 89 91 93 95 95 97 99 101 102 104 104 106 106 107 108 108 108 107 106 106 104 103 103 102 103 103 105 106 108 110 111
71 72 73 69 69 68 67 67 66 70 70 71 73 75 78 80 82 85 89 91 93 95 98 100 103 105 106 107 108 108 109 110 111 111 110 109 109 108 107 107 107 108 110 112 114 115 115 116 116
70 72 70 68 68 69 70 70 68 73 73 73 76 79 81 83 86 89 91 94 97 100 103 106 108 109 110 110 111 112 112 112 112 112 112 111 111 111 111 112 114 116 118 119 120 120 119 116 112
65 68 68 68 69 70 72 72 72 75 76 78 81 83 85 88 90 92 96 99 103 105 108 109 110 112 112 114 115 115 115 115 115 115 115 115 116 118 120 121 122 122 122 122 120 117 116 115 113
62 65 67 68 68 72 74 75 76 78 80 82 84 87 89 92 95 98 101 104 106 108 109 111 112 114 115 116 117 117 117 118 120 121 123 124 125 126 126 125 124 122 119 118 117 116 113 110 108
Wind_Direction
230 230 235 238 223 227 230 234 240 251 248 248 251 253 254 251 251 251 253 254 258 266 278 286 292 291 297 302 302 304 307 310 313 317 321 323 323 323 323 324 323 324 325 326 326 326 332 334 327
231 231 232 236 242 240 235 233 234 246 246 246 251 253 253 247 249 249 252 255 261 268 278 285 289 291 296 299 300 302 306 308 312 315 319 321 322 322 323 323 322 323 323 323 324 323 327 334 326
229 233 232 233 241 246 238 236 236 239 242 244 244 243 245 247 243 247 252 256 262 271 277 282 286 290 295 298 299 301 304 306 310 313 316 319 319 320 321 321 322 321 321 323 323 323 324 331 326
232 229 232 233 235 240 241 240 238 242 242 239 240 245 246 255 260 259 262 264 268 271 276 280 285 290 293 296 299 300 301 304 308 311 315 316 316 317 319 319 320 319 318 320 323 321 323 325 324
233 232 230 232 234 237 239 243 243 241 242 244 251 251 253 255 257 259 261 265 269 272 275 280 285 288 292 297 297 298 300 303 307 309 312 314 314 315 317 318 318 317 317 319 320 318 320 321 324
232 233 232 233 233 236 236 239 242 243 247 250 254 256 257 257 257 258 262 266 269 273 277 282 285 289 294 295 296 297 298 300 304 307 311 311 313 314 315 316 316 315 316 317 315 317 318 319 321
232 233 235 233 233 235 238 238 241 244 247 249 252 255 258 260 262 264 265 268 271 274 279 283 286 289 293 295 295 296 298 300 305 306 309 310 311 312 313 313 313 313 314 314 313 315 316 318 317
232 234 234 235 234 234 238 241 241 243 247 249 252 255 258 259 262 265 267 270 273 276 279 282 286 289 292 293 294 296 298 302 303 305 307 308 308 309 310 310 311 311 312 311 313 314 316 315 314
232 233 236 235 235 236 239 242 244 244 247 250 250 251 253 258 262 265 267 268 271 274 278 281 284 286 289 290 293 295 299 301 302 303 306 306 306 307 308 308 308 309 309 308 311 313 314 314 313
233 234 236 236 238 239 240 243 246 248 249 252 254 256 256 258 260 263 265 268 270 272 275 279 283 285 288 290 293 296 298 300 301 304 304 304 304 305 306 305 307 307 306 308 311 311 313 315 310
235 235 237 239 238 239 242 244 246 248 251 253 257 258 259 261 262 265 268 269 272 275 278 281 284 286 288 290 293 295 297 299 300 301 301 301 303 303 303 304 305 305 304 306 310 308 310 313 312
234 236 237 239 240 241 243 245 247 249 252 253 258 261 262 265 266 268 271 274 277 279 280 282 285 287 288 290 292 294 296 297 298 298 299 300 301 301 302 302 303 304 303 305 308 307 308 308 311
233 234 238 239 241 243 244 246 247 250 254 258 261 263 265 267 269 271 273 275 279 280 283 284 286 288 291 292 293 294 295 295 295 296 297 298 299 299 300 300 301 302 303 305 306 306 305 307 309
238 238 238 238 240 243 245 248 249 251 253 256 260 263 266 268 271 273 275 277 279 281 283 285 287 289 291 292 293 294 293 295 295 296 297 298 299 298 299 301 301 301 301 304 304 303 303 305 306
237 242 242 241 241 243 245 249 251 252 253 256 259 262 266 268 271 273 276 278 280 282 283 285 286 288 289 291 292 293 294 294 296 296 298 297 299 300 299 300 301 302 300 300 300 300 302 303 303
237 240 240 241 241 243 248 250 252 256 256 258 261 263 265 268 270 273 275 278 280 282 283 284 286 288 289 290 292 293 293 294 296 296 296 297 298 298 299 301 300 299 297 297 299 300 301 301 301
234 237 237 239 247 244 242 245 254 260 260 260 263 265 268 269 271 274 275 278 279 280 282 286 288 289 289 290 291 290 292 294 295 295 296 296 296 296 297 297 295 294 296 300 299 298 298 299 298
231 232 235 236 236 247 246 249 252 256 258 260 263 264 268 271 275 275 274 276 281 283 284 286 287 287 287 287 289 291 293 294 294 294 294 295 295 295 294 293 293 295 297 295 296 298 297 296 295
234 234 234 236 239 251 258 255 254 254 256 259 262 264 267 270 274 276 276 277 280 281 282 282 283 285 287 288 289 291 293 293 295 294 293 293 292 291 291 292 294 293 294 295 295 295 294 293 291
238 236 236 233 236 233 246 252 256 256 256 258 260 260 263 265 266 268 272 276 277 281 282 282 284 286 287 288 290 291 293 292 291 290 289 289 290 291 292 292 292 294 293 294 294 293 292 290 289
238 239 237 237 233 232 242 247 254 260 261 260 263 265 266 267 270 272 275 278 280 281 281 282 284 286 287 287 287 288 289 288 287 289 290 290 291 291 292 292 292 292 293 293 293 291 290 289 287
238 240 240 238 236 234 238 243 248 254 262 266 268 270 271 273 275 276 279 280 281 283 283 284 285 285 285 286 288 288 288 287 286 287 290 290 290 290 290 291 292 291 292 292 291 290 289 288 286
239 239 240 240 239 238 240 245 250 255 261 263 266 269 271 274 276 278 280 281 281 282 283 282 281 282 283 284 285 285 286 288 289 289 289 289 290 290 291 291 291 291 290 289 289 288 288 287 286
237 238 239 242 243 243 245 248 251 256 260 263 268 268 269 269 272 275 278 279 278 278 279 280 281 282 284 285 286 287 288 289 290 290 290 290 291 291 291 290 290 290 289 289 289 289 289 289 288
236 237 238 241 245 247 249 252 254 255 257 260 263 266 269 270 273 274 274 276 278 280 281 283 285 286 286 287 287 289 289 290 290 290 290 291 291 291 291 291 291 291 291 290 290 289 289 289 288
233 235 238 241 246 250 253 256 258 261 263 265 267 268 269 270 272 275 277 279 281 283 285 286 287 287 287 288 289 289 289 289 290 290 291 290 290 291 291 291 291 291 291 291 291 290 290 290 290
232 234 238 242 247 252 254 258 262 264 268 270 271 273 274 275 277 279 280 282 285 286 286 287 288 289 290 290 290 290 290 290 291 290 290 291 291 291 291 291 291 291 291 291 292 292 291 290 288
232 235 240 243 248 253 257 260 263 267 269 271 273 275 277 279 281 283 284 286 287 287 288 289 290 290 290 290 290 290 290 290 289 289 290 291 291 291 291 291 292 292 292 292 291 291 290 289 287
234 237 241 245 249 253 257 261 263 267 270 272 274 277 280 282 283 285 286 287 288 289 290 290 289 289 289 290 290 289 290 290 290 290 290 290 291 292 292 292 292 292 292 291 290 289 288 287 286
236 239 244 247 250 255 258 261 265 268 271 274 277 279 281 283 284 286 287 288 288 288 288 288 289 289 289 289 289 289 290 290 290 291 291 292 292 292 292 292 292 292 292 291 290 290 289 287 285
Height
10934 10936 10939 10940 10943 10942 10943 10945 10946 10946 10948 10948 10949 10949 10950 10951 10951 10952 10951 10952 10953 10953 10952 10951 10950 10948 10947 10946 10944 10941 10938 10936 10934 10932 10929 10926 10923 10920 10917 10914 10910 10907 10904 10901 10898 10894 10891 10887 10883
10928 10930 10933 10936 10937 10940 10939 10941 10942 10943 10944 10944 10945 10945 10946 10947 10947 10947 10948 10948 10949 10949 10948 10947 10946 10944 10943 10941 10939 10937 10934 10931 10929 10926 10923 10920 10917 10914 10911 10907 10904 10901 10898 10895 10893 10890 10886 10882 10879
10922 10925 10927 10930 10932 10935 10936 10936 10938 10939 10940 10940 10940 10940 10941 10942 10941 10943 10943 10944 10945 10945 10944 10943 10941 10940 10938 10936 10934 10932 10929 10926 10923 10920 10917 10914 10910 10908 10904 10901 10898 10894 10891 10888 10886 10883 10880 10876 10872
10915 10918 10921 10925 10927 10928 10930 10932 10933 10934 10934 10934 10934 10935 10936 10937 10937 10938 10939 10939 10940 10939 10938 10937 10936 10935 10933 10930 10929 10926 10923 10921 10918 10914 10911 10908 10905 10902 10898 10895 10892 10888 10885 10882 10878 10876 10873 10870 10867
10908 10911 10914 10918 10921 10922 10925 10926 10927 10928 10928 10929 10929 10930 10931 10932 10933 10933 10934 10934 10934 10934 10932 10931 10931 10929 10927 10925 10922 10920 10917 10914 10912 10908 10905 10902 10898 10895 10892 10888 10885 10882 10878 10875 10871 10869 10866 10863 10860
10901 10904 10907 10911 10914 10916 10919 10920 10922 10923 10923 10923 10924 10925 10925 10927 10928 10929 10929 10929 10929 10928 10927 10926 10924 10922 10920 10918 10915 10912 10910 10907 10905 10901 10898 10895 10891 10888 10884 10881 10877 10874 10872 10868 10864 10861 10858 10856 10853
10893 10896 10899 10903 10906 10909 10912 10913 10915 10916 10917 10918 10918 10919 10920 10921 10922 10922 10924 10923 10923 10922 10921 10919 10917 10915 10913 10910 10907 10904 10902 10899 10896 10893 10890 10888 10884 10880 10877 10874 10870 10866 10863 10860 10857 10854 10851 10848 10845
10885 10888 10891 10894 10899 10902 10904 10906 10908 10909 10910 10912 10914 10915 10915 10915 10916 10916 10917 10917 10916 10915 10913 10912 10909 10907 10905 10902 10900 10896 10893 10891 10888 10885 10882 10879 10876 10873 10869 10866 10862 10858 10855 10851 10849 10845 10842 10839 10836
10876 10880 10882 10885 10890 10894 10895 10898 10900 10902 10903 10905 10906 10909 10910 10909 10909 10909 10910 10911 10909 10908 10906 10903 10901 10900 10898 10894 10891 10889 10885 10882 10879 10876 10872 10869 10866 10862 10860 10856 10854 10850 10847 10843 10840 10837 10833 10830 10826
10868 10870 10872 10877 10880 10884 10887 10890 10892 10894 10895 10897 10898 10900 10902 10902 10902 10903 10903 10904 10903 10900 10899 10897 10894 10892 10890 10887 10884 10881 10877 10873 10869 10865 10862 10858 10855 10852 10849 10846 10843 10840 10836 10834 10831 10827 10825 10821 10817
10857 10860 10864 10867 10871 10875 10878 10881 10883 10885 10887 10888 10889 10890 10892 10894 10895 10895 10895 10895 10894 10892 10891 10888 10885 10882 10880 10877 10874 10871 10867 10863 10859 10855 10851 10847 10844 10841 10838 10835 10832 10829 10826 10823 10820 10817 10815 10811 10808
10847 10849 10854 10858 10862 10867 10870 10872 10874 10877 10879 10880 10880 10881 10882 10884 10886 10887 10886 10885 10884 10881 10879 10877 10875 10871 10869 10867 10865 10861 10858 10854 10850 10845 10841 10837 10833 10829 10825 10823 10820 10817 10815 10811 10808 10805 10802 10800 10797
10835 10840 10844 10849 10853 10857 10860 10863 10866 10867 10870 10871 10871 10871 10872 10874 10876 10876 10876 10875 10874 10871 10868 10865 10863 10860 10857 10854 10851 10848 10845 10842 10838 10835 10831 10827 10822 10818 10814 10811 10807 10804 10801 10798 10795 10792 10788 10785 10782
10826 10832 10835 10839 10843 10847 10851 10853 10855 10858 10861 10862 10862 10862 10864 10865 10866 10866 10864 10863 10862 10860 10858 10854 10851 10848 10845 10841 10838 10834 10831 10827 10823 10820 10816 10812 10808 10804 10801 10798 10795 10792 10789 10785 10781 10777 10774 10770 10767
10814 10819 10825 10829 10833 10838 10841 10845 10845 10849 10852 10853 10853 10854 10855 10856 10857 10855 10854 10852 10850 10848 10846 10842 10839 10836 10832 10829 10824 10820 10816 10812 10807 10803 10800 10796 10792 10788 10785 10782 10779 10776 10773 10770 10766 10762 10758 10754 10751
10803 10809 10813 10819 10823 10831 10834 10834 10841 10838 10843 10844 10844 10845 10845 10846 10846 10846 10843 10840 10839 10836 10833 10829 10826 10823 10819 10814 10810 10806 10801 10797 10793 10788 10784 10780 10775 10772 10768 10765 10762 10758 10754 10751 10748 10744 10740 10737 10734
10793 10799 10804 10812 10816 10820 10820 10822 10829 10828 10832 10835 10835 10835 10835 10835 10835 10836 10831 10828 10826 10823 10820 10816 10813 10810 10805 10800 10795 10791 10787 10782 10778 10774 10769 10763 10759 10756 10753 10748 10744 10740 10736 10733 10729 10725 10721 10718 10715
10783 10788 10795 10801 10804 10808 10810 10812 10815 10818 10822 10824 10824 10825 10824 10824 10824 10822 10820 10817 10814 10810 10807 10803 10799 10795 10790 10785 10780 10777 10772 10767 10763 10757 10753 10747 10743 10739 10735 10730 10725 10720 10717 10713 10709 10705 10701 10699 10696
10774 10781 10786 10791 10798 10801 10800 10802 10800 10809 10808 10812 10814 10814 10813 10812 10812 10808 10806 10804 10801 10798 10794 10790 10784 10780 10775 10770 10765 10761 10756 10751 10746 10740 10735 10730 10726 10720 10715 10710 10705 10701 10696 10692 10689 10685 10681 10676 10675
10762 10769 10775 10783 10786 10792 10791 10790 10788 10794 10797 10799 10802 10802 10801 10799 10798 10795 10793 10792 10788 10785 10780 10774 10770 10765 10759 10754 10749 10744 10739 10733 10728 10722 10717 10712 10706 10701 10695 10690 10684 10679 10675 10669 10666 10664 10661 10656 10651
10751 10756 10764 10771 10775 10781 10781 10782 10782 10782 10786 10789 10789 10788 10787 10786 10784 10783 10780 10778 10774 10769 10763 10758 10753 10748 10742 10736 10731 10725 10721 10715 10709 10703 10697 10690 10685 10679 10673 10667 10661 10656 10651 10646 10642 10639 10637 10635 10628
10738 10746 10752 10759 10765 10768 10769 10772 10772 10773 10776 10776 10777 10776 10774 10772 10769 10767 10764 10760 10756 10752 10746 10741 10735 10729 10723 10717 10711 10705 10699 10694 10689 10682 10676 10669 10663 10656 10650 10644 10639 10633 10628 10623 10619 10614 10612 10610 10608
10731 10733 10740 10747 10754 10758 10759 10763 10760 10763 10764 10765 10765 10764 10762 10759 10755 10752 10747 10744 10740 10734 10729 10722 10716 10710 10705 10698 10691 10684 10677 10670 10664 10658 10652 10645 10640 10635 10627 10621 10615 10610 10605 10600 10596 10591 10587 10583 10581
10719 10724 10730 10737 10743 10750 10750 10750 10751 10754 10752 10753 10752 10751 10748 10745 10740 10737 10732 10727 10721 10715 10709 10703 10696 10690 10684 10677 10669 10661 10653 10646 10640 10634 10627 10620 10614 10608 10602 10596 10590 10585 10580 10575 10570 10565 10560 10554 10550
10710 10715 10721 10728 10732 10737 10740 10740 10743 10740 10741 10741 10739 10737 10734 10730 10724 10719 10713 10707 10701 10695 10688 10681 10675 10668 10661 10654 10645 10638 10630 10621 10616 10609 10601 10595 10588 10581 10575 10568 10562 10556 10551 10546 10541 10536 10530 10524 10519
10701 10707 10712 10720 10722 10727 10728 10730 10732 10728 10728 10727 10726 10722 10718 10713 10707 10700 10694 10688 10681 10674 10668 10661 10653 10645 10638 10630 10622 10614 10607 10598 10590 10582 10574 10567 10560 10553 10546 10540 10533 10526 10519 10513 10508 10504 10497 10490 10483
10694 10700 10704 10711 10714 10717 10717 10718 10720 10715 10714 10713 10709 10705 10700 10695 10690 10684 10677 10670 10663 10655 10647 10639 10630 10621 10613 10604 10595 10587 10579 10572 10563 10554 10547 10540 10532 10525 10518 10511 10505 10497 10489 10481 10474 10468 10460 10453 10445
10686 10691 10698 10703 10706 10706 10705 10706 10709 10701 10700 10697 10692 10687 10683 10678 10672 10666 10659 10651 10643 10634 10625 10615 10605 10596 10586 10576 10568 10559 10552 10543 10536 10528 10519 10511 10504 10497 10490 10482 10474 10466 10458 10448 10440 10433 10424 10416 10409
10682 10686 10690 10693 10694 10695 10693 10693 10693 10688 10685 10681 10677 10672 10668 10662 10655 10648 10640 10631 10621 10612 10601 10590 10579 10569 10560 10549 10539 10531 10522 10513 10506 10498 10490 10482 10475 10466 10458 10449 10442 10433 10423 10412 10404 10396 10388 10381 10374
10674 10678 10681 10682 10686 10681 10681 10679 10677 10675 10672 10668 10663 10656 10650 10645 10638 10629 10620 10610 10600 10588 10577 10564 10553 10542 10533 10521 10511 10502 10494 10484 10474 10465 10457 10449 10442 10434 10425 10416 10407 10397 10387 10377 10368 10359 10349 10341 10334